This is the latest recevied weather packets stored in our database for station/object KM4CBK. If no packets are shown the sender has not sent any weather packets the latest 10 day(s).
| Time | Temp. | Humidity | Pressure | Rain* | Wind** | Luminosity | Snow |
|---|---|---|---|---|---|---|---|
| 1777422383 | 18.33° C | 99% | 1015.4 hPa | 0.51 mm | - | 0 W/m² | - |
| 1777422078 | 17.78° C | 99% | 1015.4 hPa | 0 mm | - | 0 W/m² | - |
| 1777421772 | 17.78° C | 99% | 1015.4 hPa | 0 mm | - | 0 W/m² | - |
| 1777421469 | 17.78° C | 99% | 1015.4 hPa | 0 mm | - | 0 W/m² | - |
| 1777421165 | 17.78° C | 99% | 1015.4 hPa | 0 mm | - | 0 W/m² | - |
| 1777420862 | 17.78° C | 99% | 1015.3 hPa | 0 mm | - | 1 W/m² | - |
| 1777420557 | 17.78° C | 99% | 1015.4 hPa | 0 mm | - | 1 W/m² | - |
| 1777420253 | 18.33° C | 99% | 1015.8 hPa | 0 mm | - | 2 W/m² | - |
| 1777419949 | 17.78° C | 99% | 1015.8 hPa | 0 mm | - | 4 W/m² | - |
| 1777419646 | 17.78° C | 99% | 1015.7 hPa | 0 mm | - | 4 W/m² | - |
| 1777419345 | 17.78° C | 99% | 1015.5 hPa | 0 mm | - | 5 W/m² | - |
| 1777419044 | 17.78° C | 99% | 1015.7 hPa | 0 mm | - | 4 W/m² | - |
| 1777418743 | 17.78° C | 99% | 1015.3 hPa | 0 mm | - | 5 W/m² | - |
| 1777418440 | 17.78° C | 99% | 1015.7 hPa | 0 mm | - | 15 W/m² | - |
| 1777418136 | 17.78° C | 99% | 1015.6 hPa | 0 mm | - | 21 W/m² | - |
| 1777417833 | 17.78° C | 99% | 1015.7 hPa | 0 mm | - | 21 W/m² | - |
| 1777417533 | 17.78° C | 99% | 1015.9 hPa | 0 mm | - | 22 W/m² | - |
| 1777417230 | 17.78° C | 99% | 1015.6 hPa | 0 mm | - | 24 W/m² | - |
| 1777416926 | 17.78° C | 99% | 1015.9 hPa | 0 mm | - | 23 W/m² | - |
| 1777416621 | 17.78° C | 99% | 1015.5 hPa | 0 mm | - | 23 W/m² | - |
| 1777416317 | 17.78° C | 99% | 1015.2 hPa | 0 mm | - | 29 W/m² | - |
| 1777416016 | 17.78° C | 99% | 1015.5 hPa | 0 mm | - | 29 W/m² | - |
| 1777415712 | 17.78° C | 99% | 1015.3 hPa | 0 mm | - | 37 W/m² | - |
| 1777415408 | 17.78° C | 99% | 1015.3 hPa | 0 mm | - | 66 W/m² | - |
| 1777415108 | 17.78° C | 99% | 1015.6 hPa | 0 mm | - | 91 W/m² | - |
* Rain latest hour (hover to see other rain measurements)
** Current wind speed in m/s (hover to see current wind gust speed)